COSMOS 2251 DEB

Satellite information

Favourite Embed

Satellite Type and Status

DEBRISIN ORBIT

Key statistics

Satellite COSMOS 2251 DEB at a glance.

Uptime

11869

Days in orbit

Revolutions

≈ 14.0

Per day

Orbit

LEO

Low Earth Orbit

Inclination

74.0

Latest

Satellite identification and parameters

Extended collection of information and parameters for COSMOS 2251 DEB.

Object identification

Identified? True

Debris? True

Object name: COSMOS 2251 DEB

International designator: 1993-036VG

Object number (NORAD): 34570

Object ID (CCSDS): 34570

Country: COMMONWEALTH OF INDEPENDENT STATES (CIS)

Current information (Y/N): Y

RCS size: SMALL

Orbital parameters

Period: 102.87 minutes

Inclination: 73.957 deg

SMA: 7272.551 km

Apoapsis: 1032.762 km

Periapsis: 756.069 km

RAAN: 216.6281 deg

Eccentricy: 0.01902307

Argument of periapsis: 98.9126 deg

Mean anomaly: 321.1998 deg

Mean motion: 13.99821406 rev/day

Mean motion (dot): 0.00001089 rev/day2

B* drag term: 0.00064873784 1/REarth

Two-line elements (TLE)

Creation date: Dec. 14, 2025, 3:07 a.m.

Reference frame: TEME

Reference center: EARTH

Epoch: Dec. 13, 2025, 4:35 p.m. UTC

TLE line 0: 0 COSMOS 2251 DEB

TLE line 1: 1 34570U 93036VG 25347.69108301 .00001089 00000-0 64874-3 0 9999

TLE line 2: 2 34570 73.9570 216.6281 0190231 98.9126 321.1998 13.99821406856149

Live tracking on map

Real-time ground track for satellite COSMOS 2251 DEB.

In-orbit conjunctions

A list of the most updated potential collisions computed for object COSMOS 2251 DEB.

Target Orbit TCA Probability of collision Miss distance Type
COSMOS 2251 DEB LEO 2025-03-07 07:25:05 0.0001693748 580.0 (m) DEBRIS
CZ-6A DEB SSO 2024-11-17 03:13:03 0.0001886486 221.0 (m) DEBRIS

Associated space launch

Military communications satellite. Destroyed in a collision with Iridium 33.

COSMOS 2251 DEB was lifted into orbit during the mission ‘Kosmos-3M | Strela-2M 51’, on board a Kosmos-3M space rocket.

The launch took place on June 16, 1993, 4:17 a.m. from 132/1 (132L).

For more information about the launch, click the button.

Launch to space Kosmos-3M | Strela-2M 51
Kosmos-3M | Strela-2M 51

Agency: N/A

Status: Launch Successful

Launch date: June 16, 1993, 4:17 a.m. UTC

Rocket: Kosmos-3M

Launch pad: 132/1 (132L)

Location: Plesetsk Cosmodrome, Russian Federation

...

Latest news about this satellite

There are no fresh news available about this satellite. Check back as we update our databases every day.


Newsletter sign-up

Weekly statistics, charts and insights to help you stay on top of the space industry.